TimeCDT,TemperatureF,Dew PointF,Humidity,Sea Level PressureIn,VisibilityMPH,Wind Direction,Wind SpeedMPH,Gust SpeedMPH,PrecipitationIn,Events,Conditions,WindDirDegrees,DateUTC
12:14 AM,59.0,55.4,88,29.69,7.0,ESE,20.7,28.8,N/A,Rain,Rain,110,2013-06-09 05:14:00
12:34 AM,59.0,55.4,88,29.68,5.0,ESE,19.6,29.9,0.02,Rain,Light Rain,110,2013-06-09 05:34:00
12:53 AM,59.0,55.4,88,29.67,10.0,ESE,19.6,27.6,0.02,,Overcast,120,2013-06-09 05:53:00
1:14 AM,59.0,55.4,88,29.67,4.0,ESE,16.1,24.2,N/A,Rain,Rain,120,2013-06-09 06:14:00
1:33 AM,59.0,55.4,88,29.66,3.0,ESE,20.7,26.5,0.01,Rain,Rain,120,2013-06-09 06:33:00
1:54 AM,59.0,55.4,88,29.65,5.0,ESE,20.7,27.6,0.03,Rain,Light Rain,120,2013-06-09 06:54:00
2:14 AM,59.0,55.4,88,29.65,3.0,ESE,19.6,26.5,N/A,Rain,Light Rain,110,2013-06-09 07:14:00
2:33 AM,59.0,55.4,88,29.64,3.0,ESE,19.6,25.3,N/A,Rain,Light Rain,110,2013-06-09 07:33:00
2:54 AM,59.0,55.4,88,29.64,5.0,East,17.3,25.3,N/A,Rain,Light Rain,100,2013-06-09 07:54:00
3:14 AM,59.0,55.4,88,29.63,4.0,ESE,15.0,20.7,N/A,Rain,Light Rain,110,2013-06-09 08:14:00
3:33 AM,59.0,55.4,88,29.62,10.0,East,15.0,24.2,N/A,,Overcast,100,2013-06-09 08:33:00
3:54 AM,59.0,55.4,88,29.61,10.0,East,15.0,20.7,N/A,,Overcast,100,2013-06-09 08:54:00
4:14 AM,59.0,55.4,88,29.60,7.0,East,12.7,19.6,N/A,,Overcast,90,2013-06-09 09:14:00
4:33 AM,59.0,57.2,94,29.60,4.0,East,11.5,17.3,N/A,Rain,Heavy Rain,90,2013-06-09 09:33:00
4:54 AM,59.0,57.2,94,29.60,3.0,East,11.5,-,N/A,Rain,Light Rain,90,2013-06-09 09:54:00
5:13 AM,59.0,57.2,94,29.60,3.0,East,10.4,-,N/A,Rain,Rain,80,2013-06-09 10:13:00
5:33 AM,59.0,57.2,94,29.60,2.0,East,9.2,-,N/A,Rain,Rain,80,2013-06-09 10:33:00
5:53 AM,60.8,57.2,88,29.60,2.5,East,11.5,-,0.01,,Drizzle,80,2013-06-09 10:53:00
6:14 AM,60.8,59.0,94,29.60,3.0,East,8.1,-,N/A,,Drizzle,80,2013-06-09 11:14:00
6:34 AM,60.8,59.0,94,29.60,3.0,East,8.1,-,N/A,,Heavy Drizzle,80,2013-06-09 11:34:00
6:53 AM,60.8,59.0,94,29.60,2.0,East,5.8,-,N/A,,Drizzle,90,2013-06-09 11:53:00
7:14 AM,60.8,59.0,94,29.61,4.0,SSE,4.6,-,N/A,,Overcast,160,2013-06-09 12:14:00
7:34 AM,60.8,57.2,88,29.61,7.0,South,4.6,-,N/A,,Overcast,170,2013-06-09 12:34:00
7:53 AM,60.8,57.2,88,29.62,7.0,Calm,Calm,-,N/A,,Overcast,0,2013-06-09 12:53:00
8:14 AM,60.8,57.2,88,29.62,7.0,Calm,Calm,-,N/A,,Overcast,0,2013-06-09 13:14:00
8:34 AM,60.8,57.2,88,29.63,7.0,Calm,Calm,-,N/A,,Overcast,0,2013-06-09 13:34:00
8:53 AM,60.8,57.2,88,29.63,10.0,ESE,3.5,-,N/A,,Overcast,110,2013-06-09 13:53:00
9:14 AM,60.8,59.0,94,29.63,10.0,East,4.6,-,N/A,,Overcast,100,2013-06-09 14:14:00
9:34 AM,60.8,59.0,94,29.64,10.0,East,4.6,-,N/A,,Overcast,100,2013-06-09 14:34:00
9:53 AM,60.8,59.0,94,29.65,10.0,ESE,3.5,-,N/A,,Overcast,120,2013-06-09 14:53:00
10:14 AM,60.8,59.0,94,29.65,7.0,Calm,Calm,-,0.02,Rain,Rain,0,2013-06-09 15:14:00
10:34 AM,60.8,59.0,94,29.66,5.0,Calm,Calm,-,0.03,Rain,Heavy Rain,0,2013-06-09 15:34:00
10:53 AM,60.8,59.0,94,29.66,3.0,Calm,Calm,-,0.08,Rain,Rain,0,2013-06-09 15:53:00
11:14 AM,60.8,59.0,94,29.67,3.0,North,4.6,-,0.02,Rain,Rain,350,2013-06-09 16:14:00
11:34 AM,60.8,59.0,94,29.68,5.0,North,5.8,-,0.02,Rain,Light Rain,350,2013-06-09 16:34:00
11:53 AM,62.6,59.0,88,29.68,5.0,North,6.9,-,0.03,Rain,Rain,350,2013-06-09 16:53:00
12:14 PM,62.6,59.0,88,29.69,1.8,North,5.8,-,0.02,Rain,Heavy Rain,350,2013-06-09 17:14:00
12:34 PM,62.6,59.0,88,29.70,2.5,NNW,6.9,-,0.02,,Heavy Drizzle,340,2013-06-09 17:34:00
12:53 PM,62.6,59.0,88,29.70,3.0,North,6.9,-,0.03,,Heavy Drizzle,350,2013-06-09 17:53:00
1:14 PM,62.6,60.8,94,29.70,4.0,North,9.2,-,N/A,Rain,Light Rain,350,2013-06-09 18:14:00
1:34 PM,64.4,60.8,88,29.70,5.0,North,4.6,-,N/A,Rain,Light Rain,10,2013-06-09 18:34:00
1:53 PM,64.4,60.8,88,29.71,7.0,North,6.9,-,N/A,Rain,Light Rain,350,2013-06-09 18:53:00
2:14 PM,64.4,60.8,88,29.71,10.0,North,11.5,16.1,0.02,,Overcast,350,2013-06-09 19:14:00
2:34 PM,64.4,59.0,83,29.71,10.0,NNW,11.5,-,0.02,,Overcast,340,2013-06-09 19:34:00
2:53 PM,64.4,59.0,83,29.72,10.0,NNW,11.5,17.3,0.02,Rain,Rain,340,2013-06-09 19:53:00
3:14 PM,64.4,59.0,83,29.72,7.0,NNW,16.1,-,N/A,,Overcast,330,2013-06-09 20:14:00
3:33 PM,64.4,60.8,88,29.72,10.0,NNW,11.5,-,N/A,,Overcast,330,2013-06-09 20:33:00
3:54 PM,64.4,59.0,83,29.73,10.0,NNW,13.8,18.4,N/A,,Overcast,330,2013-06-09 20:54:00
4:14 PM,66.2,60.8,83,29.73,10.0,NW,16.1,19.6,N/A,,Overcast,320,2013-06-09 21:14:00
4:33 PM,68.0,60.8,78,29.73,10.0,NNW,17.3,25.3,N/A,,Overcast,330,2013-06-09 21:33:00
4:54 PM,68.0,60.8,78,29.74,10.0,NNW,17.3,24.2,N/A,,Overcast,340,2013-06-09 21:54:00
5:14 PM,66.2,59.0,78,29.75,10.0,NNW,16.1,24.2,N/A,,Overcast,340,2013-06-09 22:14:00
5:33 PM,64.4,59.0,83,29.76,7.0,North,13.8,23.0,N/A,,Overcast,350,2013-06-09 22:33:00
5:54 PM,64.4,59.0,83,29.77,7.0,North,17.3,21.9,N/A,,Overcast,350,2013-06-09 22:54:00
6:14 PM,64.4,59.0,83,29.76,10.0,North,16.1,23.0,N/A,,Overcast,360,2013-06-09 23:14:00
6:33 PM,64.4,59.0,83,29.77,10.0,NNW,16.1,21.9,N/A,,Overcast,340,2013-06-09 23:33:00
6:54 PM,64.4,59.0,83,29.78,10.0,NNW,17.3,20.7,N/A,,Overcast,340,2013-06-09 23:54:00
7:14 PM,62.6,59.0,88,29.79,10.0,NNW,16.1,-,N/A,,Overcast,340,2013-06-10 00:14:00
7:33 PM,62.6,59.0,88,29.80,10.0,North,15.0,21.9,N/A,,Overcast,350,2013-06-10 00:33:00
7:54 PM,62.6,57.2,82,29.80,10.0,North,15.0,23.0,N/A,,Overcast,350,2013-06-10 00:54:00
8:14 PM,62.6,57.2,82,29.81,10.0,North,15.0,19.6,N/A,,Overcast,350,2013-06-10 01:14:00
8:33 PM,60.8,57.2,88,29.81,10.0,North,12.7,-,N/A,,Overcast,10,2013-06-10 01:33:00
8:54 PM,60.8,57.2,88,29.81,10.0,North,13.8,-,N/A,,Overcast,350,2013-06-10 01:54:00
9:14 PM,60.8,57.2,88,29.82,10.0,North,10.4,-,N/A,,Overcast,350,2013-06-10 02:14:00
9:33 PM,60.8,55.4,82,29.84,10.0,North,11.5,-,N/A,,Mostly Cloudy,360,2013-06-10 02:33:00
9:54 PM,60.8,55.4,82,29.85,10.0,North,9.2,-,N/A,,Mostly Cloudy,350,2013-06-10 02:54:00
10:13 PM,60.8,55.4,82,29.86,10.0,North,8.1,17.3,N/A,,Overcast,360,2013-06-10 03:13:00
10:34 PM,60.8,55.4,82,29.86,10.0,North,9.2,-,N/A,,Overcast,360,2013-06-10 03:34:00
10:54 PM,60.8,55.4,82,29.86,10.0,North,8.1,-,N/A,,Overcast,360,2013-06-10 03:54:00
11:13 PM,59.0,55.4,88,29.86,10.0,North,8.1,-,N/A,,Overcast,10,2013-06-10 04:13:00
11:34 PM,59.0,55.4,88,29.87,10.0,North,9.2,-,N/A,,Overcast,360,2013-06-10 04:34:00
11:53 PM,59.0,55.4,88,29.87,7.0,North,5.8,-,N/A,,Overcast,360,2013-06-10 04:53:00